Change the Weather History Date:

Wednesday, March 6, 2013

  Actual Average (KDBN) Record (KDBN)
Temperature  
Mean Temperature 40 °F -  
Max Temperature 46 °F 70 °F 89 °F (1961)
Min Temperature 33 °F 43 °F 19 °F (1960)
Degree Days  
Heating Degree Days 24    
Moisture  
Dew Point 22 °F    
Average Humidity 50    
Maximum Humidity 75    
Minimum Humidity 34    
Precipitation  
Precipitation 0.00 in - - ()
Sea Level Pressure  
Sea Level Pressure 29.98 in    
Wind  
Wind Speed 18 mph (WNW)    
Max Wind Speed 30 mph    
Max Gust Speed 41 mph    
Visibility 10 miles    
Events      
Averages and records for this station are not official NWS values.
T = Trace of Precipitation, MM = Missing Value Source: NWS Daily Summary

Daily Weather History Graph

Daily Weather History Graph

Search for Another Location

Airport or City:

Trip Planner

Search our weather history database for the weather conditions in past years. The results will help you decide how hot, cold, wet, or windy it might be!

Date:

Astronomy

Mar. 06, 2013 Rise Set
Actual Time 6:53 AM EST 6:32 PM EST
Civil Twilight 6:28 AM EST 6:57 PM EST
Nautical Twilight 5:59 AM EST 7:25 PM EST
Astronomical Twilight 5:30 AM EST 7:54 PM EST
Moon 2:49 AM EST (3/6) 1:24 PM EST (3/6)
Length of Visible Light 12h 28m
Length of Day
11h 38m
Waning Crescent, 30% of the Moon is Illuminated
Mar 6
Waning Crescent
Mar 11
New
Mar 19
First Quarter
Mar 27
Full
Apr 3
Last Quarter

Hourly Weather History & Observations

Time (EST) Temp. Windchill Dew Point Humidity Pressure Visibility Wind Dir Wind Speed Gust Speed Precip Events Conditions
12:15 AM 42.8 °F 33.1 °F 24.8 °F 49% 29.85 in 10.0 mi WNW 25.3 mph 34.5 mph N/A   Mostly Cloudy
12:35 AM 42.8 °F 32.5 °F 21.2 °F 42% 29.85 in 10.0 mi West 28.8 mph 39.1 mph N/A   Mostly Cloudy
12:55 AM 42.8 °F 34.5 °F 23.0 °F 46% 29.85 in 10.0 mi WNW 18.4 mph 29.9 mph N/A   Mostly Cloudy
1:15 AM 41.0 °F 29.8 °F 23.0 °F 49% 29.85 in 10.0 mi WNW 29.9 mph 41.4 mph N/A   Mostly Cloudy
1:35 AM 41.0 °F 31.9 °F 21.2 °F 45% 29.85 in 10.0 mi West 19.6 mph 34.5 mph N/A   Mostly Cloudy
1:55 AM 41.0 °F 32.5 °F 21.2 °F 45% 29.85 in 10.0 mi WNW 17.3 mph 26.5 mph N/A   Scattered Clouds
2:15 AM 41.0 °F 33.9 °F 21.2 °F 45% 29.85 in 10.0 mi West 12.7 mph 26.5 mph N/A   Scattered Clouds
2:35 AM 41.0 °F 33.9 °F 23.0 °F 49% 29.84 in 10.0 mi West 12.7 mph 18.4 mph N/A   Scattered Clouds
2:55 AM 41.0 °F 34.3 °F 23.0 °F 49% 29.84 in 10.0 mi West 11.5 mph 20.7 mph N/A   Clear
3:15 AM 41.0 °F 32.2 °F 23.0 °F 49% 29.83 in 10.0 mi West 18.4 mph 25.3 mph N/A   Scattered Clouds
3:35 AM 41.0 °F 32.5 °F 21.2 °F 45% 29.83 in 10.0 mi West 17.3 mph 26.5 mph N/A   Clear
3:55 AM 41.0 °F 34.7 °F 23.0 °F 49% 29.84 in 10.0 mi WNW 10.4 mph 19.6 mph N/A   Scattered Clouds
4:15 AM 41.0 °F 33.5 °F 23.0 °F 49% 29.84 in 10.0 mi NW 13.8 mph 23.0 mph N/A   Mostly Cloudy
4:35 AM 37.4 °F 26.9 °F 21.2 °F 52% 29.85 in 10.0 mi West 20.7 mph 33.4 mph N/A   Scattered Clouds
4:55 AM 37.4 °F 25.9 °F 17.6 °F 45% 29.85 in 10.0 mi West 25.3 mph 33.4 mph N/A   Scattered Clouds
5:15 AM 37.4 °F 27.2 °F 19.4 °F 48% 29.86 in 10.0 mi WNW 19.6 mph 31.1 mph N/A   Clear
5:35 AM 35.6 °F 25.9 °F 19.4 °F 52% 29.88 in 10.0 mi WNW 16.1 mph 28.8 mph N/A   Clear
5:55 AM 35.6 °F 26.2 °F 19.4 °F 52% 29.89 in 10.0 mi WNW 15.0 mph 25.3 mph N/A   Clear
6:15 AM 35.6 °F 26.6 °F 19.4 °F 52% 29.90 in 10.0 mi WNW 13.8 mph 24.2 mph N/A   Clear
6:35 AM 35.6 °F 26.2 °F 19.4 °F 52% 29.91 in 10.0 mi WNW 15.0 mph 21.9 mph N/A   Clear
6:55 AM 35.6 °F 24.2 °F 19.4 °F 52% 29.92 in 10.0 mi West 21.9 mph 28.8 mph N/A   Clear
7:15 AM 35.6 °F 25.9 °F 19.4 °F 52% 29.93 in 10.0 mi West 16.1 mph 21.9 mph N/A   Scattered Clouds
7:35 AM 35.6 °F 25.2 °F 19.4 °F 52% 29.93 in 10.0 mi West 18.4 mph 25.3 mph N/A   Mostly Cloudy
7:55 AM 35.6 °F 27.5 °F 19.4 °F 52% 29.94 in 10.0 mi WNW 11.5 mph 23.0 mph N/A   Scattered Clouds
8:15 AM 37.4 °F 28.5 °F 21.2 °F 52% 29.94 in 10.0 mi WNW 15.0 mph 24.2 mph N/A   Scattered Clouds
8:35 AM 37.4 °F 28.9 °F 21.2 °F 52% 29.95 in 10.0 mi WNW 13.8 mph 23.0 mph N/A   Clear
8:55 AM 37.4 °F 27.2 °F 19.4 °F 48% 29.96 in 10.0 mi WNW 19.6 mph 29.9 mph N/A   Clear
9:15 AM 37.4 °F 26.9 °F 19.4 °F 48% 29.96 in 10.0 mi WNW 20.7 mph 29.9 mph N/A   Scattered Clouds
9:35 AM 39.2 °F 29.8 °F 19.4 °F 45% 29.96 in 10.0 mi WNW 18.4 mph 38.0 mph N/A   Clear
9:55 AM 41.0 °F 31.9 °F 21.2 °F 45% 29.96 in 10.0 mi WNW 19.6 mph 31.1 mph N/A   Clear
10:15 AM 41.0 °F 31.1 °F 19.4 °F 42% 29.98 in 10.0 mi WNW 23.0 mph 31.1 mph N/A   Scattered Clouds
10:35 AM 41.0 °F 31.4 °F 21.2 °F 45% 29.98 in 10.0 mi WNW 21.9 mph 32.2 mph N/A   Scattered Clouds
10:55 AM 41.0 °F 31.1 °F 21.2 °F 45% 29.99 in 10.0 mi WNW 23.0 mph 34.5 mph N/A   Scattered Clouds
11:15 AM 41.0 °F 32.8 °F 21.2 °F 45% 29.99 in 10.0 mi WNW 16.1 mph 32.2 mph N/A   Scattered Clouds
11:35 AM 42.8 °F 34.8 °F 21.2 °F 42% 29.99 in 10.0 mi WNW 17.3 mph 33.4 mph N/A   Scattered Clouds
11:55 AM 42.8 °F 34.0 °F 21.2 °F 42% 30.00 in 10.0 mi WNW 20.7 mph 33.4 mph N/A   Clear
12:15 PM 44.6 °F 36.9 °F 21.2 °F 39% 29.99 in 10.0 mi WNW 18.4 mph 25.3 mph N/A   Clear
12:35 PM 42.8 °F 34.3 °F 21.2 °F 42% 30.00 in 10.0 mi WNW 19.6 mph 32.2 mph N/A   Clear
12:55 PM 44.6 °F 35.7 °F 19.4 °F 37% 29.98 in 10.0 mi WNW 24.2 mph 34.5 mph N/A   Clear
1:15 PM 44.6 °F 35.9 °F 21.2 °F 39% 29.98 in 10.0 mi WNW 23.0 mph 35.7 mph N/A   Clear
1:35 PM 46.4 °F 38.1 °F 19.4 °F 34% 29.98 in 10.0 mi WNW 24.2 mph 34.5 mph N/A   Clear
1:55 PM 46.4 °F 39.0 °F 19.4 °F 34% 29.98 in 10.0 mi NW 19.6 mph 28.8 mph N/A   Clear
2:15 PM 46.4 °F 38.5 °F 21.2 °F 37% 29.98 in 10.0 mi WNW 21.9 mph 40.3 mph N/A   Clear
2:35 PM 46.4 °F 39.0 °F 21.2 °F 37% 29.98 in 10.0 mi WNW 19.6 mph 27.6 mph N/A   Clear
2:55 PM 46.4 °F 40.1 °F 21.2 °F 37% 29.99 in 10.0 mi WNW 15.0 mph 36.8 mph N/A   Clear
3:15 PM 46.4 °F 39.8 °F 21.2 °F 37% 30.00 in 10.0 mi WNW 16.1 mph 28.8 mph N/A   Clear
3:35 PM 44.6 °F 35.5 °F 21.2 °F 39% 30.01 in 10.0 mi WNW 25.3 mph 35.7 mph N/A   Clear
3:55 PM 44.6 °F 37.4 °F 21.2 °F 39% 30.02 in 10.0 mi NW 16.1 mph 26.5 mph N/A   Clear
4:15 PM 46.4 °F 38.7 °F 23.0 °F 40% 30.03 in 10.0 mi WNW 20.7 mph 27.6 mph N/A   Clear
4:35 PM 44.6 °F 36.4 °F 23.0 °F 43% 30.03 in 10.0 mi WNW 20.7 mph 33.4 mph N/A   Clear
4:55 PM 44.6 °F 37.2 °F 23.0 °F 43% 30.03 in 10.0 mi WNW 17.3 mph 24.2 mph N/A   Clear
5:15 PM 44.6 °F 37.2 °F 23.0 °F 43% 30.05 in 10.0 mi WNW 17.3 mph 27.6 mph N/A   Clear
5:35 PM 42.8 °F 40.1 °F 23.0 °F 46% 30.06 in 10.0 mi WNW 4.6 mph 24.2 mph N/A   Clear
5:55 PM 42.8 °F 37.0 °F 24.8 °F 49% 30.07 in 10.0 mi WNW 10.4 mph 23.0 mph N/A   Clear
6:15 PM 42.8 °F 37.5 °F 23.0 °F 46% 30.06 in 10.0 mi NW 9.2 mph 18.4 mph N/A   Clear
6:35 PM 41.0 °F 34.7 °F 24.8 °F 53% 30.08 in 10.0 mi NW 10.4 mph 18.4 mph N/A   Clear
6:55 PM 41.0 °F 34.3 °F 26.6 °F 57% 30.09 in 10.0 mi NW 11.5 mph 17.3 mph N/A   Clear
7:15 PM 41.0 °F 36.4 °F 26.6 °F 57% 30.10 in 10.0 mi WNW 6.9 mph - N/A   Clear
7:35 PM 39.2 °F 33.0 °F 26.6 °F 61% 30.10 in 10.0 mi WNW 9.2 mph - N/A   Clear
7:55 PM 37.4 °F 30.3 °F 26.6 °F 65% 30.11 in 10.0 mi NW 10.4 mph 17.3 mph N/A   Clear
8:15 PM 37.4 °F 32.1 °F 26.6 °F 65% 30.11 in 10.0 mi NW 6.9 mph - N/A   Clear
8:35 PM 37.4 °F 32.1 °F 26.6 °F 65% 30.11 in 10.0 mi WNW 6.9 mph - N/A   Clear
8:55 PM 37.4 °F 32.1 °F 26.6 °F 65% 30.11 in 10.0 mi WNW 6.9 mph - N/A   Clear
9:15 PM 37.4 °F 31.4 °F 26.6 °F 65% 30.11 in 10.0 mi WNW 8.1 mph - N/A   Clear
9:35 PM 37.4 °F 31.4 °F 26.6 °F 65% 30.11 in 10.0 mi NW 8.1 mph - N/A   Clear
9:55 PM 37.4 °F 31.4 °F 28.4 °F 70% 30.12 in 10.0 mi WNW 8.1 mph - N/A   Clear
10:35 PM 37.4 °F 32.1 °F 28.4 °F 70% 30.13 in 10.0 mi WNW 6.9 mph - N/A   Clear
10:55 PM 37.4 °F 33.8 °F 28.4 °F 70% 30.13 in 10.0 mi WNW 4.6 mph - N/A   Clear
11:15 PM 35.6 °F 31.7 °F 26.6 °F 70% 30.13 in 10.0 mi NW 4.6 mph - N/A   Clear
11:35 PM 35.6 °F 31.7 °F 28.4 °F 75% 30.13 in 10.0 mi NW 4.6 mph - N/A   Clear
11:55 PM 33.8 °F 30.8 °F 26.6 °F 75% 30.14 in 10.0 mi NW 3.5 mph - N/A   Clear